Weather History for Le Luc, France

Change the Weather History Date:

Thursday, April 24, 2014

  Actual Average (LFTH) Record (LFTH)
Temperature  
Mean Temperature 65 °F -  
Max Temperature 81 °F 68 °F 73 °F (2004)
Min Temperature 49 °F 53 °F 42 °F (1997)
Growing Degree Days 15 (Base 50)    
Moisture  
Dew Point 48 °F    
Average Humidity 56    
Maximum Humidity 94    
Minimum Humidity 17    
Precipitation  
Precipitation 0.00 in - - ()
Sea Level Pressure  
Sea Level Pressure 29.97 in    
Wind  
Wind Speed 5 mph ()    
Max Wind Speed 12 mph    
Max Gust Speed -    
Visibility 6.4 miles    
Events      
Averages and records for this station are not official NWS values.
T = Trace of Precipitation, MM = Missing Value Source: Averaged Metar Reports

Daily Weather History Graph

Daily Weather History Graph

Search for Another Location

Airport:

Trip Planner

Search our weather history database for the weather conditions in past years. The results will help you decide how hot, cold, wet, or windy it might be!

Date:

Astronomy

Apr. 24, 2014 Rise Set
Actual Time 6:38 AM CEST 8:27 PM CEST
Civil Twilight 6:07 AM CEST 8:58 PM CEST
Nautical Twilight 5:30 AM CEST 9:35 PM CEST
Astronomical Twilight 4:50 AM CEST 10:16 PM CEST
Moon 3:48 AM CEST (4/24) 3:16 PM CEST (4/24)
Length of Visible Light 14h 50m
Length of Day
13h 49m
Waning Crescent, 27% of the Moon is Illuminated
Apr 24
Waning Crescent
Apr 29
New
May 7
First Quarter
May 14
Full
May 21
Last Quarter

Hourly Weather History & Observations

Time (CEST) Temp. Dew Point Humidity Pressure Visibility Wind Dir Wind Speed Gust Speed Precip Events Conditions
12:00 AM 60 °F 51 °F 65% 30.04 in 28 mi WSW 5.8 mph - -   Clear
12:00 AM 60.8 °F 51.8 °F 72% 30.04 in 6.2 mi WSW 5.8 mph - N/A   Unknown
12:30 AM 60.8 °F 50.0 °F 68% 30.04 in 6.2 mi WSW 5.8 mph - N/A   Unknown
1:00 AM 60 °F 49 °F 59% 30.05 in 31 mi SW 5.8 mph - -   Clear
1:00 AM 60.8 °F 50.0 °F 68% 30.04 in 6.2 mi SW 5.8 mph - N/A   Unknown
1:30 AM 59.0 °F 50.0 °F 72% 30.04 in 6.2 mi SW 4.6 mph - N/A   Unknown
2:00 AM 60 °F 49 °F 58% 30.04 in 31 mi WSW 8.1 mph - -   Clear
2:00 AM 59.0 °F 50.0 °F 72% 30.04 in 6.2 mi WSW 8.1 mph - N/A   Unknown
2:30 AM 59.0 °F 48.2 °F 67% 30.01 in 6.2 mi WSW 11.5 mph - N/A   Unknown
3:00 AM 59 °F 49 °F 60% 30.02 in 31 mi WSW 9.2 mph - -   Clear
3:00 AM 59.0 °F 48.2 °F 67% 30.01 in 6.2 mi WSW 9.2 mph - N/A   Unknown
3:30 AM 59.0 °F 48.2 °F 67% 30.01 in 6.2 mi SW 6.9 mph - N/A   Unknown
4:00 AM 58 °F 48 °F 62% 30.01 in 31 mi WSW 8.1 mph - -   Clear
4:00 AM 59.0 °F 48.2 °F 67% 30.01 in 6.2 mi WSW 8.1 mph - N/A   Unknown
4:30 AM 57.2 °F 48.2 °F 72% 30.01 in 6.2 mi WSW 4.6 mph - N/A   Unknown
5:00 AM 56 °F 49 °F 69% 30.01 in 12 mi South 3.5 mph - -   Clear
5:00 AM 55.4 °F 48.2 °F 77% 30.01 in 6.2 mi Variable 3.5 mph - N/A   Unknown
5:30 AM 55.4 °F 48.2 °F 77% 30.01 in 6.2 mi WSW 3.5 mph - N/A   Unknown
6:00 AM 51 °F 47 °F 82% 30.01 in 31 mi Calm Calm - -   Clear
6:00 AM 51.8 °F 46.4 °F 82% 30.01 in 6.2 mi Calm Calm - N/A   Unknown
6:30 AM 50.0 °F 46.4 °F 87% 30.01 in 6.2 mi East 1.2 mph - N/A   Unknown
7:00 AM 50 °F 47 °F 86% 30.01 in 31 mi SW 1.2 mph - -  
7:00 AM 50.0 °F 48.2 °F 94% 30.01 in - Variable 1.2 mph - N/A   Clear
8:00 AM 54 °F 49 °F 78% 30.01 in 31 mi NW 1.2 mph - -  
8:00 AM 53.6 °F 50.0 °F 88% 30.01 in - Variable 1.2 mph - N/A   Clear
9:00 AM 62 °F 50 °F 54% 30.01 in 31 mi WSW 4.6 mph - -  
9:00 AM 62.6 °F 50.0 °F 63% 30.01 in - WSW 4.6 mph - N/A   Clear
10:00 AM 67 °F 51 °F 45% 30.01 in 31 mi North 2.3 mph - -   Clear
10:00 AM 66.2 °F 50.0 °F 56% 30.01 in - Variable 3.5 mph - N/A   Clear
11:00 AM 72 °F 51 °F 36% 30.00 in 31 mi NNW 3.5 mph - -   Scattered Clouds
11:00 AM 71.6 °F 50.0 °F 46% 30.01 in 6.2 mi Variable 3.5 mph - N/A   Partly Cloudy
12:00 PM 75 °F 47 °F 26% 29.98 in 31 mi West 1.2 mph - -   Scattered Clouds
12:00 PM 75.2 °F 46.4 °F 36% 29.98 in 6.2 mi Variable 2.3 mph - N/A   Partly Cloudy
1:00 PM 78 °F 46 °F 21% 29.96 in 31 mi NE 2.3 mph - -   Scattered Clouds
1:00 PM 78.8 °F 46.4 °F 32% 29.95 in 6.2 mi Variable 2.3 mph - N/A   Scattered Clouds
2:00 PM 80 °F 45 °F 19% 29.94 in 31 mi East 2.3 mph - -   Partly Cloudy
2:00 PM 78.8 °F 44.6 °F 30% 29.95 in 6.2 mi Variable 3.5 mph - N/A   Mostly Cloudy
3:00 PM 78 °F 49 °F 26% 29.92 in 31 mi South 6.9 mph - -   Partly Cloudy
3:00 PM 77.0 °F 50.0 °F 39% 29.92 in 6.2 mi South 8.1 mph - N/A   Mostly Cloudy
4:00 PM 78.8 °F 50.0 °F 36% 29.89 in 6.2 mi Variable 8.1 mph - N/A   Mostly Cloudy
5:00 PM 81 °F 45 °F 18% 29.87 in 31 mi West 6.9 mph - -   Partly Cloudy
5:00 PM 80.6 °F 44.6 °F 28% 29.89 in 6.2 mi Variable 6.9 mph - N/A   Mostly Cloudy
6:00 PM 79 °F 42 °F 17% 29.87 in 31 mi West 11.5 mph - -   Partly Cloudy
6:00 PM 78.8 °F 42.8 °F 28% 29.86 in 6.2 mi West 10.4 mph - N/A   Mostly Cloudy
7:00 PM 76 °F 46 °F 24% 29.88 in 47 mi NNW 10.4 mph - -   Scattered Clouds
7:00 PM 77.0 °F 44.6 °F 32% 29.89 in 6.2 mi NNW 9.2 mph - N/A   Mostly Cloudy
8:00 PM 73 °F 45 °F 25% 29.89 in 47 mi West 5.8 mph - -   Scattered Clouds
8:00 PM 73.4 °F 44.6 °F 36% 29.89 in 6.2 mi West 6.9 mph - N/A   Mostly Cloudy
8:30 PM 71.6 °F 44.6 °F 38% 29.89 in 6.2 mi WSW 6.9 mph - N/A   Unknown
9:00 PM 67 °F 51 °F 47% 29.91 in 31 mi East 3.5 mph - -   Clear
9:00 PM 68.0 °F 51.8 °F 56% 29.89 in 6.2 mi Variable 3.5 mph - N/A   Unknown
9:30 PM 64.4 °F 51.8 °F 64% 29.92 in 6.2 mi Variable 1.2 mph - N/A   Unknown
10:00 PM 63 °F 52 °F 59% 29.92 in 31 mi East 1.2 mph - -   Clear
10:00 PM 62.6 °F 51.8 °F 68% 29.92 in 6.2 mi Variable 1.2 mph - N/A   Unknown
10:30 PM 60.8 °F 51.8 °F 72% 29.92 in 6.2 mi East 1.2 mph - N/A   Unknown
11:00 PM 60 °F 53 °F 70% 29.92 in 28 mi Calm Calm - -   Clear
11:00 PM 60.8 °F 53.6 °F 77% 29.92 in 6.2 mi Calm Calm - N/A   Unknown
11:30 PM 57.2 °F 51.8 °F 82% 29.92 in 6.2 mi Variable 2.3 mph - N/A   Unknown